RH
100 100 100 100 100 95 84 88 94 100 92 72 51 35 32 30 30 30 34 35 36 31 31 37 36 30 30 32 39 61 50 48 53
100 100 100 99 99 88 81 100 100 91 87 79 59 44 33 32 33 33 34 33 41 34 36 41 34 31 35 39 49 58 52 59 57
78 80 80 90 71 76 100 100 100 94 88 79 64 46 35 37 36 40 36 42 41 38 45 40 38 35 39 46 52 64 67 63 52
55 64 89 97 98 100 100 100 100 90 79 74 55 43 40 38 43 43 44 43 44 44 46 43 44 41 49 55 65 72 68 62 52
100 100 100 100 100 100 100 98 95 85 85 71 58 47 44 44 45 45 53 48 48 48 47 47 48 46 54 64 75 74 70 55 53
100 100 100 100 100 97 97 93 84 74 72 70 57 54 54 50 51 56 56 54 52 51 52 51 50 52 62 74 80 70 60 54 56
100 100 100 100 90 86 85 78 72 68 65 65 63 66 64 65 66 66 64 64 62 59 52 48 54 59 74 93 75 62 53 52 57
100 100 97 91 94 87 86 81 75 73 74 68 67 72 70 67 70 69 68 63 65 57 52 59 66 72 82 74 61 57 50 53 63
78 67 64 71 69 70 72 71 68 68 65 68 70 67 64 69 75 68 67 72 62 55 54 68 75 72 71 62 55 51 49 58 67
57 57 61 68 73 70 72 74 77 77 80 76 74 70 80 75 72 70 75 71 63 61 71 78 66 72 65 56 51 51 53 64 62
70 68 72 84 80 84 81 85 86 89 83 81 85 88 82 81 86 84 75 70 73 77 80 69 66 70 58 55 54 56 62 64 66
74 75 78 83 92 89 91 94 87 85 82 86 94 95 99 100 90 82 72 84 85 85 70 62 67 56 59 56 59 64 68 65 72
81 83 85 87 82 88 91 91 92 84 86 90 100 100 100 95 86 76 81 88 74 70 63 62 58 63 64 60 62 66 74 73 70
80 80 80 85 86 89 89 91 88 88 96 100 100 100 99 88 86 86 73 75 79 67 58 61 70 70 64 68 68 73 72 77 68
80 82 83 86 92 100 98 96 97 100 100 100 100 100 90 85 83 93 100 82 68 59 66 76 75 68 68 70 70 71 72 70 52
85 86 90 92 99 99 99 100 100 100 99 100 100 94 92 95 92 90 80 64 68 76 79 76 69 76 75 73 80 79 63 42 42
90 92 93 97 100 100 100 100 99 100 100 100 100 100 100 97 95 83 70 78 85 80 80 71 75 82 71 78 78 64 37 36 33
98 100 100 100 100 100 100 100 100 100 100 94 98 99 100 100 98 90 87 95 90 81 76 76 87 83 76 74 64 40 34 32 27
100 100 100 100 100 100 100 100 100 100 100 96 97 88 82 82 89 99 96 97 82 90 81 85 85 79 81 66 50 40 27 31 27
100 100 100 100 100 100 100 100 100 100 100 100 96 90 94 97 97 100 92 90 96 91 87 89 89 84 74 61 48 35 29 30 29
Wind_Speed
32 30 29 27 27 30 30 33 36 32 29 30 33 34 35 37 39 41 44 46 50 51 53 55 58 61 63 66 67 63 67 70 72
35 33 33 32 28 30 33 31 31 29 31 33 35 37 39 41 43 45 47 50 53 55 57 58 61 65 65 67 67 66 70 72 76
39 38 33 31 33 34 31 33 31 33 34 36 39 39 42 45 47 49 51 53 55 57 58 61 64 66 68 69 69 68 71 75 77
34 35 35 32 29 31 31 32 33 35 38 39 41 43 45 48 51 53 55 56 57 58 60 62 65 68 70 70 69 71 73 78 80
31 29 27 29 31 32 33 34 36 38 40 42 44 46 49 51 54 56 58 58 59 61 63 65 67 70 70 71 71 74 77 79 83
26 28 32 33 35 35 36 39 40 41 43 45 47 50 53 55 56 58 58 60 61 63 65 67 70 72 71 72 74 77 77 82 83
31 34 36 37 38 39 40 42 44 45 46 48 50 52 54 56 57 58 61 62 63 66 69 70 73 73 72 74 78 78 82 85 85
37 37 36 36 37 39 42 43 45 47 48 51 52 54 55 57 59 61 64 65 66 69 70 72 74 74 74 78 78 82 86 89 88
40 40 40 41 41 43 43 46 47 49 51 52 53 56 58 59 63 64 66 68 70 72 73 74 75 75 79 80 82 85 90 91 92
42 43 43 44 45 47 48 49 50 50 52 55 58 59 62 64 66 67 68 71 72 74 75 77 78 79 82 85 88 91 93 94 97
43 44 45 48 49 50 51 51 51 54 57 60 63 65 66 67 69 71 73 74 74 75 77 80 82 82 86 89 93 94 96 98 100
46 47 48 50 52 53 53 53 56 57 63 64 67 70 70 71 73 75 76 74 76 77 81 85 84 89 91 94 97 98 99 103 106
50 50 51 54 55 54 56 59 60 63 66 69 71 70 72 75 77 77 76 77 79 82 87 87 90 92 95 98 102 102 104 108 107
55 55 56 58 59 61 61 61 65 68 70 72 72 73 76 77 76 78 79 81 84 87 90 90 92 95 100 102 105 106 109 112 105
60 60 60 61 63 62 63 66 70 73 72 73 74 76 78 78 78 79 80 85 90 91 91 92 96 101 104 106 108 111 113 105 96
64 64 63 63 62 66 68 70 74 69 73 72 76 77 78 79 81 84 87 90 92 91 94 98 102 104 107 110 113 113 108 99 88
67 67 67 67 68 71 73 72 71 73 76 77 76 76 79 83 87 90 92 93 93 96 99 103 106 109 113 114 114 111 100 91 87
69 71 72 72 74 75 71 72 74 78 80 79 79 80 83 86 88 93 96 95 99 103 106 107 111 113 116 116 113 106 97 90 84
71 72 72 71 71 73 75 78 78 79 80 82 84 87 88 90 90 92 97 101 104 105 109 112 114 115 114 112 110 100 94 87 79
74 76 75 74 75 78 79 80 80 81 83 86 89 92 93 93 94 95 101 103 106 110 112 114 115 111 111 109 104 96 90 82 75
Wind_Direction
258 260 267 274 280 281 282 283 285 286 282 285 285 290 295 299 301 304 309 312 315 319 322 325 328 329 334 335 336 333 333 331 330
259 266 270 278 276 278 278 279 284 284 288 287 290 293 296 300 303 305 307 312 315 320 323 326 328 329 333 334 333 331 330 329 329
264 271 275 275 276 275 275 280 283 285 288 291 293 295 297 300 303 307 309 312 316 319 323 326 327 330 332 332 330 328 327 326 328
259 262 265 268 270 270 277 281 284 288 288 291 298 297 298 300 304 307 310 313 315 320 323 324 328 329 330 329 326 325 326 325 327
257 258 259 261 263 273 280 282 287 288 291 294 295 296 298 301 305 308 311 312 316 319 322 324 326 328 328 325 323 324 324 325 326
251 257 260 263 270 278 284 287 289 291 292 293 295 297 300 303 305 307 310 313 316 318 320 322 324 326 324 322 321 322 323 324 325
250 257 264 268 277 283 286 287 288 288 289 292 294 298 300 303 306 310 311 314 315 318 318 320 322 323 321 318 320 321 322 324 323
251 260 268 274 279 281 284 286 286 288 291 292 295 298 301 304 308 310 312 314 314 315 317 319 320 320 319 318 319 320 323 323 323
254 260 266 270 275 279 284 287 289 292 296 299 302 302 303 306 308 310 311 312 313 314 315 318 318 317 317 318 319 320 322 322 322
258 262 267 271 276 279 283 287 290 291 297 301 302 303 306 306 308 308 309 310 312 313 316 316 315 316 317 318 319 321 321 322 321
262 266 269 273 277 280 283 286 287 292 299 302 304 306 306 307 307 307 308 311 312 312 313 314 316 316 318 318 319 320 321 320 321
265 269 271 274 278 281 284 285 292 294 300 301 303 305 306 305 305 307 309 310 310 310 313 315 315 316 317 318 318 319 319 319 320
268 270 273 277 280 282 286 288 291 296 298 300 302 303 303 303 305 307 308 307 308 311 314 315 315 316 316 316 317 318 318 318 321
270 273 275 278 281 284 284 286 292 295 297 299 300 300 302 303 304 304 305 308 309 311 313 313 313 313 315 316 317 318 318 318 319
270 273 276 278 279 282 284 290 293 295 298 297 297 301 302 302 304 304 304 306 309 310 311 310 312 313 314 315 316 316 317 318 317
271 274 277 278 280 282 286 288 293 295 293 296 299 300 300 300 302 302 304 306 308 309 308 310 312 313 314 314 315 316 318 317 316
270 274 276 279 281 283 285 291 288 292 292 296 297 298 298 299 301 302 305 305 306 306 309 310 312 312 313 315 315 316 318 317 315
269 273 276 279 280 285 288 287 287 291 293 293 293 294 296 299 301 302 303 303 305 307 310 310 311 312 313 314 314 317 317 316 314
272 276 279 282 282 281 284 286 289 289 290 291 292 294 295 297 298 298 301 304 305 307 308 309 310 311 312 314 315 316 316 316 313
272 274 276 278 279 282 284 286 287 288 289 290 292 295 295 296 297 299 300 304 304 306 309 308 308 309 312 312 314 313 314 314 311